Location: Cadenet
(43.7345°N, 5.3750°E)
Time: 09:11:09
(UTC+00:00)

Meteor 1-31 Rocket - Pass Details

Date: 18 February 2020
Orbit: 522 x 546 km, 97.6° (Epoch: 09 April)

Event Time Altitude Azimuth Distance (km) Brightness Sun altitude
Rises 05:30:01 0° 354° (N) 2,665 6.2 -12.2°
Reaches altitude 10° 05:32:48 10° 332° (NNW) 1,773 5.1 -11.7°
Maximum altitude 05:35:03 15° 295° (WNW) 1,465 4.4 -11.3°
Enters shadow 05:35:07 15° 294° (WNW) 1,465 4.4 -11.2°
